This is the latest recevied weather packets stored in our database for station/object WE8M. If no packets are shown the sender has not sent any weather packets the latest 10 day(s).
| Time | Temp. | Humidity | Pressure | Rain* | Wind** | Luminosity | Snow |
|---|---|---|---|---|---|---|---|
| 1777554789 | 6.67° C | 80% | 1016 hPa | 0 mm | - | - | - |
| 1777554486 | 6.67° C | 79% | 1015.6 hPa | 0 mm | - | - | - |
| 1777554182 | 6.67° C | 78% | 1015.9 hPa | 0 mm | - | - | - |
| 1777553879 | 6.67° C | 80% | 1015.7 hPa | 0 mm | - | - | - |
| 1777553575 | 6.67° C | 81% | 1015.5 hPa | 0 mm | - | - | - |
| 1777553271 | 6.67° C | 79% | 1015.6 hPa | 0 mm | - | - | - |
| 1777552967 | 6.67° C | 79% | 1015.5 hPa | 0 mm | - | - | - |
| 1777552662 | 6.67° C | 78% | 1015.5 hPa | 0 mm | - | - | - |
| 1777552359 | 6.67° C | 79% | 1015.4 hPa | 0 mm | - | - | - |
| 1777552056 | 7.22° C | 79% | 1015 hPa | 0 mm | - | - | - |
| 1777551753 | 7.22° C | 76% | 1015.2 hPa | 0 mm | - | - | - |
| 1777551450 | 7.22° C | 76% | 1015.1 hPa | 0 mm | - | - | - |
| 1777551147 | 7.22° C | 76% | 1014.8 hPa | 0 mm | - | - | - |
| 1777550845 | 6.67° C | 81% | 1015 hPa | 0 mm | - | - | - |
| 1777550541 | 6.11° C | 81% | 1014.9 hPa | 0 mm | - | - | - |
| 1777550236 | 6.11° C | 80% | 1015 hPa | 0 mm | - | - | - |
| 1777549933 | 6.11° C | 82% | 1015 hPa | 0 mm | - | - | - |
| 1777549629 | 6.11° C | 81% | 1014.9 hPa | 0 mm | - | - | - |
| 1777549324 | 6.11° C | 81% | 1014.6 hPa | 0 mm | - | - | - |
| 1777549023 | 5.56° C | 82% | 1014.5 hPa | 0 mm | - | - | - |
| 1777548719 | 5.56° C | 82% | 1014.5 hPa | 0 mm | - | - | - |
| 1777548416 | 5.56° C | 83% | 1014.2 hPa | 0 mm | - | - | - |
| 1777548113 | 5.56° C | 82% | 1014.2 hPa | 0 mm | - | - | - |
| 1777547808 | 5.56° C | 83% | 1014.2 hPa | 0 mm | - | - | - |
| 1777547504 | 5.56° C | 83% | 1014.3 hPa | 0 mm | - | - | - |
* Rain latest hour (hover to see other rain measurements)
** Current wind speed in m/s (hover to see current wind gust speed)